User: anonymous   Login
Location: Unspecified
(0.0000°N, 0.0000°E)
Time: 08:53:10
(UTC+00:00)
Language:

HULIANWANG DIGUI-58 - Orbit

View from above orbital plane
View from above orbital plane
View from above satellite
View from above satellite

Ground track
Ground track

The orbit is defined by the following mean orbital elements,

1 65164U          26145.60184833 +.00000000 +00000-0 +13819-4 0 00002
2 65164  86.4959 259.6312 0001920  95.6228 264.5125 13.24404292    03
Epoch (UTC): 25 May 2026 14:26:39
Eccentricity: 0.0001920
inclination: 86.4959°
perigee height: 1166 km
apogee height: 1169 km
right ascension of ascending node: 259.6312°
argument of perigee: 95.6228°
revolutions per day: 13.24404292
mean anomaly at epoch: 264.5125°

The dashed part of the orbit path shows where the satellite is in the earth's shadow,  

DLR